This demonstration page uses our WeatherBlox Daily Observations layout. Learn more.

Left ArrowRight Arrow

34.02893, -84.19858

Hourly Observations for January 12, 2018

Temp ( °F °C ) Dew Point ( °F °C ) Humidity (%) Winds ( mph kmh ) Pressure ( in mb ) Visibility ( mi km ) Precip ( " mm )
12:53 am 00:53 Mostly Cloudy with Fog 56 13.3 56 13.3 100 100 Calm 29.85 1011 1 1 0.00 0.00
1:53 am 01:53 Mostly Cloudy with Fog 58 14.4 58 14.4 100 100 SSE 5 7 29.83 1010 1 1 0.00 0.00
2:53 am 02:53 Mostly Cloudy with Fog 58 14.4 58 14.4 100 100 SE 8 13 29.82 1010 1 1 0.00 0.00
3:03 am 03:03 Mostly Cloudy with Mist and Fog 58 14.4 58 14.4 100 100 VRB 7 11 29.80 1009 1 2 0.00 0.00
3:17 am 03:17 Cloudy with Mist and Fog 59 15 58 14.4 96 96 SE 8 13 29.80 1009 3 5 0.00 0.00
3:42 am 03:42 Cloudy with Mist and Fog 59 15 59 15 100 100 SSE 8 13 29.77 1008 6 10 0.00 0.00
3:53 am 03:53 Cloudy 59 15 59 15 100 100 SSE 8 13 29.80 1009 7 11 0.00 0.00
4:30 am 04:30 Cloudy with Light Rain 60 15.6 59 15 96 96 S 9 15 29.77 1008 9 14 0.00 0.03
4:53 am 04:53 Cloudy with Light Rain 60 15.6 59 15 96 96 S 10 17 29.80 1009 10 16 0.01 0.25
5:06 am 05:06 Cloudy with Light Rain 60 15.6 59 15 96 96 S 12 19 29.77 1008 10 16 0.00 0.03
5:53 am 05:53 Cloudy 60 15.6 58 14.4 93 93 SSE 6 9 29.78 1008 10 16 0.02 0.51
6:27 am 06:27 Cloudy 59 15 58 14.4 96 96 SSE 5 7 29.77 1008 10 16 0.00 0.03
6:53 am 06:53 Cloudy 59 15 58 14.4 96 96 SE 7 11 29.76 1008 10 16 0.00 0.03
7:53 am 07:53 Cloudy 60 15.6 59 15 96 96 SSE 8 13 29.75 1007 10 16 0.00 0.03
8:53 am 08:53 Cloudy with Light Rain 60 15.6 58 14.4 93 93 SSE 14 22 29.73 1007 4 6 0.05 1.27
8:58 am 08:58 Cloudy with Light Rain 60 15.6 58 14.4 93 93 S 17 28 29.74 1007 3 4 0.04 1.02
9:05 am 09:05 Cloudy with Rain 59 15 56 13.3 90 90 SW 21 33 29.74 1007 1 2 0.07 1.78
9:12 am 09:12 Cloudy with Light Rain 58 14.4 55 12.8 90 90 WSW 16 26 29.74 1007 3 5 0.08 2.03
9:53 am 09:53 Cloudy with Light Rain 56 13.3 53 11.7 90 90 W 5 7 29.77 1008 3 5 0.13 3.30
10:00 am 10:00 Cloudy with Light Rain 56 13.3 54 12.2 93 93 S 5 7 29.80 1009 4 6 0.01 0.25
10:12 am 10:12 Cloudy with Rain 56 13.3 55 12.8 97 97 SSE 5 7 29.80 1009 2 3 0.05 1.27
10:53 am 10:53 Cloudy with Light Rain 55 12.8 53 11.7 93 93 SE 6 9 29.77 1008 3 5 0.19 4.83
11:53 am 11:53 Cloudy 57 13.9 55 12.8 93 93 SE 5 7 29.69 1005 10 16 0.01 0.25
12:53 pm 12:53 Cloudy with Light Rain 57 13.9 54 12.2 90 90 S 9 15 29.67 1005 5 8 0.02 0.51
1:33 pm 13:33 Cloudy 56 13.3 54 12.2 93 93 SSW 7 11 29.65 1004 10 16 0.02 0.51
1:53 pm 13:53 Cloudy with Light Rain 56 13.3 54 12.2 93 93 SSW 9 15 29.65 1004 5 8 0.05 1.27
2:04 pm 14:04 Cloudy with Light Rain 56 13.3 54 12.2 93 93 SSW 10 17 29.65 1004 10 16 0.00 0.03
2:39 pm 14:39 Cloudy 57 13.9 54 12.2 90 90 SW 12 19 29.65 1004 10 16 0.00 0.03
2:53 pm 14:53 Cloudy 57 13.9 53 11.7 87 87 SW 10 17 29.63 1003 10 16 0.00 0.03
3:24 pm 15:24 Cloudy 57 13.9 53 11.7 87 87 SW 10 17 29.65 1004 10 16 0.00 0.00
3:53 pm 15:53 Cloudy with Light Rain 56 13.3 53 11.7 90 90 SW 14 22 29.63 1003 3 5 0.02 0.51
4:00 pm 16:00 Cloudy with Light Rain 55 12.8 52 11.1 90 90 W 20 31 29.65 1004 2 3 0.01 0.25
4:06 pm 16:06 Cloudy with Light Rain 54 12.2 51 10.6 90 90 W 17 28 29.68 1005 8 13 0.01 0.25
4:53 pm 16:53 Cloudy 50 10 47 8.3 89 89 W 13 20 29.69 1005 10 16 0.01 0.25
5:25 pm 17:25 Cloudy 47 8.3 45 7.2 93 93 WNW 14 22 29.71 1006 10 16 0.00 0.00
5:53 pm 17:53 Cloudy 43 6.1 39 3.9 86 86 W 18 30 29.75 1007 10 16 0.00 0.00
6:53 pm 18:53 Cloudy 38 3.3 33 0.6 83 83 WNW 17 28 29.81 1010 10 16 0.00 0.00
7:53 pm 19:53 Cloudy 34 1.1 30 -1.1 85 85 W 17 28 29.86 1011 10 16 0.00 0.00
8:51 pm 20:51 Cloudy 32 0 27 -3 80 80 WNW 17 28 29.91 1013 10 16 0.00 0.00
8:53 pm 20:53 Cloudy 32 0 27 -2.8 82 82 WNW 23 37 29.89 1012 10 16 0.00 0.00
9:53 pm 21:53 Cloudy 30 -1.1 24 -4.4 79 79 WNW 17 28 29.93 1013 10 16 0.00 0.00
10:53 pm 22:53 Cloudy 28 -2.2 21 -6.1 75 75 WNW 16 26 29.96 1015 10 16 0.00 0.00
11:53 pm 23:53 Cloudy 27 -2.8 19 -7.2 72 72 WNW 24 39 29.98 1015 10 16 0.00 0.00

Powered by AerisWeather